Location: Austin
(30.3000°N, 97.7500°W)
Time: 02:57:11
(UTC-06:00)

ADEOS - Pass Details

Date: 20 November 2023
Orbit: 792 x 792 km, 98.9° (Epoch: 04 December)

Event Time Altitude Azimuth Distance (km) Brightness Sun altitude
Rises 19:15:57 0° 170° (S) 3,274 6.8 -22.3°
Reaches altitude 10° 19:18:16 10° 172° (S) 2,348 6.0 -22.7°
Maximum altitude 19:23:26 75° 257° (WSW) 821 3.7 -23.8°
Drops below altitude 10° 19:28:39 10° 343° (NNW) 2,360 6.1 -25.0°
Sets 19:30:59 0° 345° (NNW) 3,293 6.9 -25.5°
